{"data":{"norad_id":66418,"epoch":"2026-09-19T20:09:22.186368Z","epoch_age_seconds":184983,"freshness":"STALE","line1":"1 66418U 25258G   26262.83984012 -.00000089  00000+0  75546-4 0  9998","line2":"2 66418  50.0027 315.9364 0000017 312.0388  48.0483 13.29326632 42320","mean_motion":13.29326632,"eccentricity":1.7e-6,"inclination_deg":50.0027,"raan_deg":315.9364,"arg_perigee_deg":312.0388,"mean_anomaly_deg":48.0483,"bstar":7.5546e-5,"rev_number":4232,"period_min":108.32552100709,"perigee_km":1149.2913893619,"apogee_km":1149.3169826619,"semimajor_km":7527.4411860119,"source":"CELESTRAK","updated_at":"2026-09-21T09:00:15.964692Z"}}